EW6895 Weather Reports


time (UTC)temp
F
wind
direction
speed
knots
gust
knots
rain 1hr
in
rain 24hr
in
rain mn
in
humidity
%
barometer
mb
20181215062020 47 334 9.6 17.4 0.00 0.03 0.00 65 1018.3
20181215061529 47 324 8.7 14.8 0.00 0.03 0.00 66 1018.3
20181215061025 48 356 7.8 20.9 0.00 0.03 0.00 67 1018.2
20181215060524 48 340 10.4 20.9 0.00 0.03 0.00 67 1018.2
20181215060017 48 324 7.8 16.5 0.00 0.03 0.00 68 1018.3
20181215055530 48 336 7.8 16.5 0.00 0.03 0.03 69 1018.3
20181215055103 48 333 7.8 16.5 0.00 0.03 0.03 69 1018.3
20181215054556 48 318 10.4 14.8 0.00 0.03 0.03 69 1018.4
20181215054050 48 311 7.8 14.8 0.00 0.03 0.03 70 1018.2
20181215053543 48 300 7.0 13.0 0.00 0.03 0.03 72 1018.4
20181215053037 48 329 7.8 14.8 0.00 0.03 0.03 73 1018.4
20181215052513 48 354 7.8 14.8 0.00 0.03 0.03 74 1018.2
20181215052046 49 329 7.0 14.8 0.00 0.03 0.03 74 1018.1
20181215051537 49 323 9.6 15.6 0.00 0.03 0.03 74 1018.0
20181215051024 49 358 7.0 15.6 0.00 0.03 0.03 75 1018.0
20181215050519 49 332 9.6 17.4 0.00 0.03 0.03 75 1018.0
20181215050011 49 328 10.4 20.0 0.00 0.03 0.03 75 1017.9
20181215045604 49 342 9.6 20.0 0.00 0.03 0.03 75 1017.9
20181215045058 49 318 7.8 17.4 0.00 0.03 0.03 75 1017.9
20181215044535 49 11 9.6 19.1 0.00 0.03 0.03 76 1017.8
20181215044029 49 352 8.7 19.1 0.00 0.03 0.03 77 1017.7
20181215043602 49 334 8.7 15.6 0.00 0.03 0.03 78 1017.6
20181215043056 49 344 6.1 12.2 0.00 0.03 0.03 79 1017.4
20181215042550 49 9 7.0 12.2 0.00 0.03 0.03 80 1017.4
20181215042043 49 346 8.7 13.9 0.00 0.03 0.03 80 1017.4
20181215041537 49 342 7.0 13.9 0.00 0.03 0.03 81 1017.4
20181215041011 49 323 6.1 13.9 0.00 0.03 0.03 82 1017.3
20181215040544 49 331 7.0 11.3 0.00 0.03 0.03 82 1017.3
20181215040040 49 348 7.0 12.2 0.00 0.03 0.03 83 1017.3
20181215035532 49 9 7.8 14.8 0.00 0.03 0.03 84 1017.4
20181215035103 49 325 8.7 14.8 0.00 0.03 0.03 85 1017.4
20181215034557 49 1 7.8 13.9 0.00 0.03 0.03 86 1017.5
20181215034050 49 347 9.6 13.9 0.00 0.03 0.03 86 1017.6
20181215033543 49 2 8.7 16.5 0.00 0.03 0.03 86 1017.8
20181215033021 49 359 9.6 16.5 0.00 0.03 0.03 86 1017.9
20181215032555 49 351 10.4 16.5 0.00 0.03 0.03 86 1017.9
20181215032048 49 320 8.7 19.1 0.00 0.03 0.03 86 1017.9
20181215031541 49 2 13.0 19.1 0.00 0.03 0.03 85 1017.8
20181215031035 49 338 6.1 14.8 0.00 0.03 0.03 84 1017.7
20181215030529 49 343 8.7 14.8 0.00 0.03 0.03 84 1017.8
20181215030104 49 2 9.6 13.0 0.00 0.03 0.03 84 1017.8
20181215025557 48 331 8.7 13.0 0.00 0.03 0.03 85 1017.9
20181215025034 48 2 6.1 13.0 0.00 0.03 0.03 85 1017.9
20181215024528 48 338 7.8 14.8 0.00 0.03 0.03 85 1017.9
20181215024102 48 342 6.1 14.8 0.00 0.03 0.03 85 1017.9
20181215023556 48 326 7.0 11.3 0.00 0.03 0.03 86 1017.9
20181215023047 48 342 6.1 12.2 0.00 0.03 0.03 86 1017.9
20181215022540 48 332 7.0 12.2 0.00 0.03 0.03 86 1017.8
20181215022034 48 335 6.1 18.2 0.00 0.03 0.03 86 1017.5
20181215021510 48 333 7.0 18.2 0.00 0.03 0.03 86 1017.6
20181215021044 48 342 7.8 13.9 0.00 0.03 0.03 86 1017.4
20181215020538 48 327 7.8 16.5 0.00 0.03 0.03 86 1017.3
20181215020031 47 1 7.8 15.6 0.00 0.03 0.03 86 1017.2
20181215015525 47 339 8.7 15.6 0.00 0.03 0.03 86 1017.2
20181215015018 47 346 8.7 15.6 0.00 0.03 0.03 86 1017.2
20181215014511 47 343 7.8 13.9 0.00 0.03 0.03 86 1017.1
20181215014105 47 349 8.7 13.9 0.00 0.03 0.03 86 1017.1
20181215013559 47 327 9.6 15.6 0.00 0.03 0.03 86 1017.0
20181215013037 47 339 7.0 18.2 0.00 0.03 0.03 86 1017.1
20181215012529 48 328 8.7 18.2 0.00 0.03 0.03 86 1017.2
20181215012103 48 319 9.6 15.6 0.00 0.03 0.03 86 1017.0
20181215011557 48 333 7.8 14.8 0.00 0.03 0.03 86 1017.0
20181215011052 48 7 5.2 13.9 0.00 0.03 0.03 86 1016.9
20181215010544 48 1 9.6 16.5 0.00 0.03 0.03 86 1017.0
20181215010039 48 347 8.7 16.5 0.00 0.03 0.03 85 1016.8
20181215005518 48 18 9.6 18.2 0.00 0.03 0.03 85 1016.9
20181215005055 48 341 9.6 18.2 0.00 0.03 0.03 85 1016.8
20181215004547 48 342 10.4 16.5 0.00 0.03 0.03 85 1016.6
20181215004040 48 5 8.7 16.5 0.00 0.03 0.03 85 1016.6
20181215003534 48 4 10.4 19.1 0.00 0.03 0.03 85 1016.4
20181215003027 48 343 11.3 19.1 0.00 0.03 0.03 85 1016.5
20181215002600 48 42 9.6 17.4 0.00 0.03 0.03 86 1016.5
20181215002054 48 1 11.3 17.4 0.00 0.03 0.03 86 1016.4
20181215001530 48 346 10.4 17.4 0.00 0.03 0.03 86 1016.3
20181215001104 48 350 9.6 20.0 0.00 0.03 0.03 86 1016.1
20181215000558 48 331 13.0 20.9 0.00 0.03 0.03 86 1016.2
20181215000050 48 317 13.0 20.9 0.00 0.03 0.03 86 1016.1
20181214235542 48 354 10.4 20.0 0.00 0.03 0.03 86 1016.1
20181214235036 48 344 9.6 20.0 0.00 0.03 0.03 86 1016.1
20181214234514 48 325 10.4 17.4 0.00 0.03 0.03 86 1016.0
20181214234104 48 9 9.6 17.4 0.00 0.03 0.03 86 1016.1
20181214233542 48 334 7.8 18.2 0.00 0.03 0.03 86 1015.9
20181214233035 48 354 7.0 19.1 0.00 0.03 0.03 86 1015.9
20181214232529 48 323 10.4 17.4 0.00 0.03 0.03 86 1015.8
20181214232105 48 348 9.6 18.2 0.00 0.03 0.03 86 1015.8
20181214231558 48 338 8.7 18.2 0.00 0.03 0.03 86 1015.8
20181214231052 48 10 11.3 16.5 0.00 0.03 0.03 87 1015.7
20181214230529 48 358 9.6 16.5 0.00 0.03 0.03 86 1015.6
20181214230021 48 353 9.6 16.5 0.00 0.03 0.03 86 1015.6
20181214225513 47 323 10.4 14.8 0.00 0.03 0.03 87 1015.6
20181214225106 47 330 9.6 17.4 0.00 0.03 0.03 87 1015.5
20181214224559 47 329 9.6 17.4 0.00 0.03 0.03 87 1015.5
20181214224052 47 10 12.2 20.9 0.00 0.03 0.03 87 1015.4
20181214223545 47 36 13.9 23.5 0.00 0.03 0.03 87 1015.3
20181214223039 47 350 14.8 23.5 0.00 0.03 0.03 87 1015.3
20181214222516 47 348 12.2 20.9 0.00 0.03 0.03 87 1015.2
20181214222050 47 351 8.7 20.0 0.00 0.03 0.03 87 1015.1
20181214221542 47 351 13.0 22.6 0.00 0.03 0.03 86 1015.0
20181214221036 47 341 12.2 22.6 0.00 0.03 0.03 87 1015.1
20181214220529 47 5 10.4 21.7 0.00 0.03 0.03 86 1015.0
20181214220103 47 322 12.2 21.7 0.00 0.03 0.03 86 1015.0
20181214215556 47 356 12.2 19.1 0.00 0.03 0.03 87 1014.9
20181214215049 47 23 7.8 21.7 0.00 0.03 0.03 87 1014.7
20181214214525 47 350 12.2 24.3 0.00 0.03 0.03 87 1014.6
20181214214019 47 11 12.2 24.3 0.00 0.03 0.03 87 1014.6
20181214213512 47 339 10.4 18.2 0.00 0.03 0.03 87 1014.6
20181214213107 46 352 11.3 20.0 0.00 0.03 0.03 87 1014.6
20181214212559 46 325 10.4 20.0 0.00 0.03 0.03 87 1014.4
20181214212052 46 340 8.7 19.1 0.00 0.03 0.03 87 1014.3
20181214211545 46 3 10.4 19.1 0.00 0.03 0.03 87 1014.2
20181214211038 46 340 10.4 19.1 0.00 0.03 0.03 88 1014.1
20181214210514 46 340 11.3 19.1 0.00 0.03 0.03 88 1014.0
20181214210048 46 321 8.7 19.1 0.00 0.03 0.03 88 1014.0
20181214205540 46 1 10.4 16.5 0.00 0.42 0.03 88 1013.9
20181214205032 46 3 8.7 17.4 0.00 0.42 0.03 88 1013.9
20181214204525 46 321 11.3 18.2 0.00 0.42 0.03 88 1013.8
20181214204019 46 10 13.0 18.2 0.00 0.42 0.03 88 1013.7
20181214203513 46 359 11.3 22.6 0.00 0.42 0.03 88 1013.7
20181214203106 46 7 13.0 22.6 0.00 0.42 0.03 88 1013.6
20181214202543 46 42 8.7 17.4 0.00 0.42 0.03 88 1013.6
20181214202036 46 10 10.4 18.2 0.00 0.42 0.03 88 1013.6
20181214201530 46 1 7.8 23.5 0.00 0.42 0.03 88 1013.4
20181214201102 46 359 12.2 23.5 0.00 0.42 0.03 88 1013.4
20181214200556 46 8 10.4 19.1 0.00 0.42 0.03 88 1013.4
20181214200049 46 308 9.6 19.1 0.00 0.42 0.03 88 1013.3
20181214195542 46 329 13.0 19.1 0.00 0.42 0.03 88 1013.4
20181214195019 46 345 10.4 21.7 0.00 0.42 0.03 88 1013.4
20181214194550 46 13 11.3 21.7 0.00 0.42 0.03 88 1013.3
20181214194042 46 321 9.6 19.1 0.00 0.42 0.03 88 1013.3
20181214193534 46 337 9.6 20.0 0.00 0.42 0.03 88 1013.2
20181214193028 46 312 9.6 17.4 0.00 0.42 0.03 88 1013.3
20181214192601 46 18 7.8 18.2 0.00 0.42 0.03 88 1013.4
20181214192054 46 343 9.6 18.2 0.00 0.42 0.03 88 1013.3
20181214191547 46 356 10.4 18.2 0.00 0.42 0.03 88 1013.2
20181214191023 46 350 9.6 18.2 0.00 0.42 0.03 88 1013.3
20181214190558 46 336 9.6 15.6 0.00 0.42 0.03 88 1013.2
20181214190052 46 7 6.1 19.1 0.00 0.42 0.03 88 1013.3
20181214185545 46 28 9.6 19.1 0.00 0.43 0.03 88 1013.3
20181214184530 45 12 11.3 18.2 0.00 0.43 0.03 88 1013.1
20181214184102 45 5 9.6 19.1 0.00 0.43 0.03 88 1012.9
20181214183554 45 341 9.6 19.1 0.00 0.43 0.03 89 1012.7
20181214183032 45 283 8.7 18.2 0.00 0.43 0.03 88 1012.6
20181214182524 45 307 9.6 18.2 0.00 0.43 0.03 88 1012.5
20181214182017 45 344 10.4 19.1 0.00 0.43 0.03 89 1012.8
20181214181510 45 349 8.7 19.1 0.00 0.43 0.03 89 1012.8
20181214181105 45 334 9.6 18.2 0.00 0.43 0.03 89 1013.1
20181214180557 45 349 8.7 17.4 0.00 0.43 0.03 90 1013.2
20181214180050 45 340 7.8 20.9 0.00 0.43 0.03 90 1013.2
20181214175542 44 18 10.4 20.9 0.00 0.43 0.03 90 1013.3
20181214175019 44 318 7.8 15.6 0.00 0.43 0.03 90 1013.4
20181214174512 44 346 7.8 16.5 0.00 0.43 0.03 90 1013.4
20181214174105 44 353 10.4 16.5 0.00 0.43 0.03 90 1013.6
20181214173559 44 357 10.4 20.0 0.00 0.43 0.03 90 1013.7
20181214173053 45 320 9.6 20.0 0.00 0.43 0.03 90 1013.7
20181214172545 45 301 8.7 18.2 0.00 0.43 0.03 90 1013.7
20181214172035 44 359 9.6 19.1 0.00 0.43 0.03 90 1013.9
20181214171513 44 330 11.3 19.1 0.00 0.43 0.03 90 1014.1
20181214171045 44 18 9.6 13.9 0.00 0.43 0.03 90 1014.1
20181214170539 44 340 7.8 15.6 0.00 0.43 0.03 90 1014.2
20181214170033 44 356 10.4 15.6 0.01 0.43 0.03 90 1014.2
20181214165525 44 340 10.4 18.2 0.01 0.43 0.03 90 1014.1
20181214165059 44 352 11.3 18.2 0.01 0.43 0.03 90 1014.1
20181214164552 44 327 9.6 20.0 0.02 0.43 0.03 90 1014.1
20181214164046 44 346 11.3 20.0 0.03 0.43 0.03 90 1014.0
20181214163522 44 343 8.7 16.5 0.03 0.43 0.03 91 1014.0
20181214163056 44 323 9.6 16.5 0.03 0.43 0.03 91 1013.8
20181214162549 44 354 9.6 16.5 0.03 0.43 0.03 91 1013.8
20181214162042 44 320 9.6 17.4 0.03 0.43 0.03 91 1013.7
20181214161534 44 335 9.6 16.5 0.03 0.43 0.03 91 1013.7
20181214161028 44 5 7.8 16.5 0.03 0.43 0.03 91 1013.6
20181214160603 44 1 9.6 14.8 0.03 0.43 0.03 91 1013.6
20181214160055 44 338 8.7 15.6 0.02 0.42 0.02 91 1013.5
20181214155531 44 355 7.0 13.9 0.02 0.44 0.02 91 1013.5
20181214155104 44 349 9.6 14.8 0.02 0.44 0.02 90 1013.6
20181214154556 44 13 8.7 17.4 0.01 0.43 0.01 89 1013.4
20181214154050 44 344 8.7 17.4 0.00 0.42 0.00 89 1013.4
20181214153541 44 325 11.3 20.0 0.00 0.42 0.00 88 1013.3
20181214153034 44 350 9.6 20.0 0.00 0.42 0.00 87 1013.3
20181214152528 44 342 8.7 17.4 0.00 0.42 0.00 87 1013.2
20181214152102 44 355 10.4 19.1 0.00 0.42 0.00 87 1013.1
20181214151535 44 4 11.3 19.1 0.00 0.42 0.00 88 1013.0
20181214151028 44 359 11.3 20.0 0.00 0.42 0.00 88 1013.0
20181214150602 44 334 13.9 20.0 0.00 0.42 0.00 87 1013.0
20181214150056 44 356 9.6 20.9 0.00 0.42 0.00 87 1012.9
20181214145548 44 328 10.4 17.4 0.00 0.42 0.00 87 1012.9
20181214145042 44 1 12.2 18.2 0.00 0.42 0.00 87 1012.9
20181214144534 44 350 11.3 18.2 0.00 0.42 0.00 87 1012.7
20181214144010 44 353 12.2 20.0 0.00 0.42 0.00 87 1012.6
20181214143545 44 14 11.3 21.7 0.00 0.42 0.00 87 1012.5
20181214143039 44 314 12.2 21.7 0.00 0.42 0.00 87 1012.3
20181214142531 44 344 13.0 21.7 0.00 0.42 0.00 87 1012.3
20181214142104 44 356 13.0 21.7 0.00 0.42 0.00 87 1012.0
20181214141558 44 347 10.4 18.2 0.00 0.42 0.00 87 1012.0
20181214141048 44 338 10.4 20.0 0.00 0.42 0.00 87 1011.9
20181214140542 44 354 13.0 20.9 0.00 0.42 0.00 87 1012.1
20181214140020 44 349 13.9 20.9 0.00 0.42 0.00 88 1011.9
20181214135555 44 335 10.4 17.4 0.00 0.42 0.00 88 1011.8
20181214135049 44 354 11.3 19.1 0.00 0.42 0.00 89 1011.9
20181214134546 44 356 12.2 20.9 0.00 0.42 0.00 89 1011.8
20181214134042 44 352 13.0 20.9 0.00 0.42 0.00 89 1011.6
20181214133534 44 334 11.3 18.2 0.00 0.42 0.00 90 1011.5
20181214133029 44 359 12.2 18.2 0.00 0.42 0.00 90 1011.6
20181214132603 44 5 8.7 19.1 0.00 0.42 0.00 90 1011.6
20181214132039 44 345 12.2 19.1 0.00 0.42 0.00 90 1011.5
20181214131533 44 330 13.9 20.9 0.00 0.42 0.00 90 1011.3
20181214131027 44 360 10.4 20.0 0.00 0.42 0.00 91 1011.2
20181214130522 44 353 8.7 17.4 0.00 0.42 0.00 91 1010.9
20181214125559 44 341 10.4 17.4 0.00 0.42 0.00 91 1010.9
20181214125055 44 335 9.6 17.4 0.00 0.42 0.00 91 1010.7
20181214124532 44 350 8.7 18.2 0.00 0.42 0.00 90 1010.8
20181214124026 45 35 7.8 20.0 0.00 0.42 0.00 90 1011.1
20181214123600 45 355 13.0 20.0 0.00 0.42 0.00 90 1010.9
20181214123054 45 341 10.4 16.5 0.00 0.42 0.00 90 1010.8
20181214122546 45 345 12.2 19.1 0.00 0.42 0.00 90 1011.0
20181214122040 45 352 9.6 18.2 0.00 0.42 0.00 90 1010.9
20181214121534 45 353 9.6 18.2 0.00 0.42 0.00 90 1010.8
20181214121011 45 1 9.6 18.2 0.00 0.42 0.00 90 1010.6
20181214120545 45 332 11.3 18.2 0.00 0.42 0.00 90 1010.6
20181214120040 45 357 9.6 17.4 0.00 0.42 0.00 90 1010.4
20181214115531 45 340 8.7 19.1 0.00 0.42 0.00 90 1010.2
20181214115025 45 336 8.7 19.1 0.00 0.42 0.00 90 1010.2
20181214114519 45 354 8.7 14.8 0.00 0.42 0.00 90 1009.9
20181214114012 45 9 8.7 20.9 0.00 0.42 0.00 90 1009.8
20181214113605 45 359 13.0 20.9 0.00 0.42 0.00 90 1009.8
20181214113058 46 352 7.8 13.0 0.00 0.42 0.00 89 1009.8
20181214112533 46 5 7.0 18.2 0.00 0.42 0.00 89 1009.8
20181214112027 46 323 10.4 18.2 0.00 0.42 0.00 89 1009.7
20181214111600 46 7 11.3 15.6 0.00 0.42 0.00 89 1009.7
20181214111053 45 5 8.7 20.0 0.00 0.42 0.00 89 1009.7
20181214110547 46 341 11.3 20.0 0.00 0.42 0.00 89 1009.5
20181214110042 46 9 12.2 18.2 0.00 0.42 0.00 89 1009.6
20181214105534 46 343 11.3 16.5 0.00 0.42 0.00 89 1009.5
20181214105011 46 7 9.6 16.5 0.00 0.42 0.00 89 1009.5
20181214104545 46 352 10.4 14.8 0.00 0.42 0.00 88 1009.6
20181214104039 46 337 8.7 13.9 0.00 0.42 0.00 89 1009.6
20181214103532 46 18 8.7 15.6 0.00 0.42 0.00 88 1009.6
20181214103026 46 5 8.7 15.6 0.00 0.42 0.00 88 1009.6
20181214102559 46 23 9.6 14.8 0.00 0.42 0.00 89 1009.7
20181214102052 46 36 8.7 15.6 0.00 0.42 0.00 88 1009.6
20181214101545 46 345 11.3 15.6 0.00 0.42 0.00 89 1009.5
20181214101021 46 18 5.2 14.8 0.00 0.42 0.00 89 1009.5
20181214100556 46 352 9.6 14.8 0.00 0.42 0.00 89 1009.3
20181214100049 46 12 7.8 16.5 0.00 0.42 0.00 89 1009.2
20181214095542 46 350 10.4 18.2 0.00 0.42 0.00 88 1009.0
20181214095035 46 327 12.2 19.1 0.00 0.42 0.00 88 1009.0
20181214094528 46 351 7.8 17.4 0.00 0.42 0.00 89 1008.9
20181214094102 46 340 9.6 16.5 0.00 0.42 0.00 89 1008.9
20181214093555 46 1 9.6 16.5 0.00 0.42 0.00 89 1008.7
20181214093033 46 3 8.7 16.5 0.00 0.42 0.00 89 1008.6
20181214092605 46 18 10.4 14.8 0.00 0.42 0.00 89 1008.5
20181214092059 46 36 7.8 16.5 0.00 0.42 0.00 89 1008.4
20181214091553 46 350 9.6 19.1 0.00 0.42 0.00 89 1008.3
20181214091045 46 327 10.4 19.1 0.00 0.42 0.00 89 1008.3
20181214090538 46 7 9.6 21.7 0.00 0.42 0.00 89 1008.2
20181214090015 46 347 13.0 21.7 0.00 0.42 0.00 89 1008.1
20181214085605 46 345 12.2 17.4 0.00 0.46 0.00 89 1008.2
20181214085042 46 3 9.6 17.4 0.00 0.46 0.00 89 1008.3
20181214084533 46 354 8.7 16.5 0.00 0.46 0.00 89 1008.4
20181214084027 46 2 9.6 15.6 0.00 0.46 0.00 89 1008.3
20181214083521 46 13 9.6 14.8 0.00 0.46 0.00 89 1008.3
20181214083012 46 359 8.7 19.1 0.00 0.46 0.00 89 1008.3
20181214082604 46 353 10.4 19.1 0.00 0.46 0.00 89 1008.2
20181214082058 46 347 10.4 17.4 0.00 0.46 0.00 88 1008.2
20181214081534 46 3 8.7 17.4 0.00 0.46 0.00 89 1008.2
20181214081027 46 2 10.4 17.4 0.00 0.46 0.00 89 1008.2
20181214080520 46 332 7.0 19.1 0.00 0.46 0.00 89 1008.1
20181214080014 46 321 10.4 19.1 0.00 0.46 0.00 89 1008.1
20181214075526 46 338 10.4 17.4 0.00 0.46 0.00 89 1008.1
20181214075018 46 356 7.8 13.9 0.00 0.46 0.00 89 1008.1
20181214074530 46 359 6.1 13.9 0.00 0.46 0.00 89 1008.1
20181214074026 46 1 7.8 17.4 0.00 0.46 0.00 89 1007.9
20181214073519 46 353 12.2 17.4 0.00 0.46 0.00 89 1007.9
20181214073012 46 18 6.1 19.1 0.00 0.46 0.00 89 1007.9
20181214072524 46 28 7.0 19.1 0.00 0.46 0.00 89 1008.0
20181214072016 46 354 10.4 13.9 0.00 0.46 0.00 89 1007.9
20181214071530 46 3 9.6 14.8 0.00 0.46 0.00 89 1007.8
20181214071023 46 1 9.6 14.8 0.00 0.46 0.00 89 1007.9
20181214070516 46 4 10.4 13.0 0.00 0.46 0.00 89 1008.0
20181214070013 46 340 7.8 17.4 0.00 0.46 0.00 89 1008.0
20181214065525 46 23 8.7 17.4 0.00 0.46 0.00 89 1008.1
20181214065017 46 23 8.7 14.8 0.00 0.46 0.00 89 1008.1
20181214064529 46 28 8.7 14.8 0.00 0.46 0.00 89 1008.0
20181214064021 46 357 7.8 13.9 0.00 0.46 0.00 89 1008.0
20181214063513 46 10 7.8 14.8 0.00 0.46 0.00 89 1008.0
20181214063026 46 346 7.8 17.4 0.00 0.46 0.00 89 1007.9
20181214062519 46 331 7.8 17.4 0.00 0.46 0.00 89 1007.9